Location: Bratislava
(48.1500°N, 17.1170°E)
Time: 06:02:34
(UTC+02:00)

BlueWalker 3 - Pass Details

Date: 17 May 2026
Orbit: 447 x 456 km, 53.2° (Epoch: 10 June)

Event Time Altitude Azimuth Distance (km) Brightness Sun altitude
Exits shadow 00:29:43 20° 74° (ENE) 1,100 3.7 -22.5°
Drops below altitude 10° 00:30:57 10° 68° (ENE) 1,575 4.6 -22.5°
Sets 00:33:06 0° 64° (ENE) 2,450 5.7 -22.5°
